Location: Plymouth
(43.7490°N, 87.9770°W)
Time: 01:19:28
(UTC-05:00)

Daily predictions for brighter satellites

Satellite Brightness Start Highest point End
(mag) Time Altitude Azimuth Time Altitude Azimuth Time Altitude Azimuth
ATLAS 3B R/B 4.2 01:58:26 32° N 01:58:26 32° N 02:02:57 10° NNE
Cosmos 1980 Rocket 4.4 02:19:14 20° NE 02:19:14 20° NE 02:21:02 10° NE
Cosmos 2263 Rocket 4.3 02:26:49 10° N 02:31:02 21° NE 02:31:06 21° NE
SL-16 R/B 3.5 03:16:19 39° NNW 03:16:19 39° NNW 03:20:04 10° NNW
Cosmos 2322 Rocket 3.0 03:28:06 46° ENE 03:28:06 46° ENE 03:32:13 10° NNE
Cosmos 1709 Rocket 4.4 03:22:24 10° N 03:27:32 59° NNE 03:27:32 59° NNE
CENTAUR R/B 2.8 03:30:07 64° NNE 03:30:07 64° NNE 03:36:01 10° NE
ADEOS Rocket 3.4 03:24:56 10° NNE 03:29:19 51° NE 03:29:19 51° NE
SL-16 R/B 2.9 03:31:51 50° ENE 03:31:51 50° ENE 03:36:14 10° NNE
USA 215 3.7 03:26:33 10° ESE 03:32:57 58° NNE 03:39:22 10° NW
Cosmos 1697 Rocket 4.4 03:43:38 23° NNW 03:43:38 23° NNW 03:46:46 10° N
ARIANE 5 R/B 3.6 03:41:02 10° N 03:44:11 38° N 03:44:11 38° N
CZ-2D R/B 2.9 03:49:20 10° N 03:53:19 46° NNW 03:53:19 46° NNW
Cosmos 2360 Rocket 3.0 03:57:54 40° SE 03:58:49 43° ESE 04:04:08 10° NE
Resurs 1-4 Rocket 3.0 03:54:07 10° N 03:57:40 40° NNW 03:57:40 40° NNW
Cosmos 1980 Rocket 3.5 04:01:00 28° NNW 04:01:00 28° NNW 04:04:50 10° N
Cosmos 1812 4.4 04:04:57 32° NE 04:04:57 32° NE 04:07:21 10° NNE
Okean O Rocket 3.2 04:04:31 10° NNE 04:08:31 32° E 04:09:49 27° SE
Cosmos 2263 Rocket 3.3 04:09:57 10° NNW 04:12:42 30° NW 04:12:42 30° NW
Cosmos 2184 Rocket 4.1 04:09:39 10° N 04:15:52 71° E 04:22:06 10° SSE
Cosmos 1340 4.1 04:18:04 35° E 04:18:12 35° E 04:21:41 10° NNE
Cosmos 1777 Rocket 4.1 04:15:39 10° NNW 04:20:58 77° ENE 04:26:16 10° SSE
Meteor 1-18 Rocket 4.3 04:22:11 41° SSE 04:24:05 70° E 04:29:40 10° NNE
MOS 1-B 4.3 04:18:27 10° NNE 04:24:18 88° ESE 04:25:50 52° SSW
ADEOS II 3.1 04:21:53 10° NNE 04:26:55 44° E 04:30:52 16° SSE
Lacrosse 5 4.2 04:34:51 11° SSE 04:34:51 11° SSE 04:35:04 10° SSE
Cosmos 1455 Rocket 3.2 04:26:10 10° N 04:30:34 70° E 04:32:07 39° SSE
Cosmos 2322 3.9 04:29:55 42° S 04:31:51 71° ESE 04:37:34 10° NNE
MOS 1 Rocket 3.1 04:27:57 10° NNE 04:32:47 90° WNW 04:33:14 73° SSW
Cosmos 1975 Rocket 4.0 04:38:19 34° NNW 04:38:19 34° NNW 04:41:12 10° N
EO 1 Del DPAF 3.9 04:34:09 16° SSE 04:37:05 56° ENE 04:40:53 10° N
Okean 1 3.3 04:40:05 74° SSE 04:40:22 81° E 04:44:28 10° N
Cosmos 1238 Rocket 4.2 04:46:13 18° SE 04:47:41 27° E 04:50:16 10° NNE
Cosmos 2154 Rocket 4.2 04:43:19 10° N 04:49:31 69° E 04:55:41 10° SSE
Cosmos 1975 2.7 04:45:49 10° N 04:49:54 79° W 04:50:38 57° S
Lacrosse 4 Rocket 1.4 04:45:43 10° NNW 04:49:55 81° ENE 04:54:11 10° SSE
CZ-4B DEB 4.3 04:50:01 10° NNE 04:55:36 77° ESE 05:00:33 13° S
Cosmos 1536 Rocket 3.5 04:54:41 32° S 04:56:46 90° WNW 05:01:17 10° N
Cosmos 1500 3.1 04:53:23 10° NNW 04:57:02 61° W 04:57:02 61° W
Cosmos 2208 Rocket 4.5 04:53:05 16° S 04:57:24 63° ESE 05:02:47 10° NNE
Tiangong 2 1.5 04:59:14 52° SE 04:59:14 52° SE 05:01:50 10° ESE
CZ-4B R/B 3.3 04:54:14 10° NNE 04:59:56 84° ESE 05:04:58 13° SSW
IRAS Rocket 4.3 04:57:32 10° NNE 05:03:06 81° ESE 05:08:32 11° SSW
PSLV R/B 3.9 05:00:00 10° N 05:03:36 48° WNW 05:03:39 48° WNW
Cosmos 1610 Rocket 4.5 05:03:55 10° NNW 05:10:06 64° W 05:16:20 10° S
Gblst 52 Del rocket 4.2 05:06:19 17° WNW 05:10:49 82° SW 05:17:12 10° SE
Cosmos 2322 Rocket 3.5 05:09:55 22° WNW 05:11:10 23° NW 05:15:37 10° N
PSLV R/B 3.4 05:07:20 10° N 05:11:40 79° WNW 05:14:44 19° SSW
SL-16 R/B 3.5 05:13:43 21° WNW 05:15:11 23° NW 05:19:39 10° N
Cosmos 2237 4.2 05:11:23 21° SSW 05:15:22 80° WNW 05:21:08 10° NNE
Nadezhda 1 Rocket 4.0 05:10:50 17° SSW 05:15:29 58° WNW 05:21:29 10° N
ADEOS Rocket 4.2 05:11:41 10° NNW 05:15:29 19° WNW 05:16:16 19° WNW
USA 215 3.4 05:09:44 10° SSE 05:16:02 48° SW 05:22:21 10° WNW
COSMOS 2428 2.7 05:14:19 15° SSW 05:19:10 88° ESE 05:24:54 10° NNE
ERS-2 2.7 05:16:39 10° NNE 05:20:20 60° ESE 05:23:58 10° S
CENTAUR R/B 4.1 05:17:17 16° WNW 05:20:54 25° NNW 05:26:40 10° NNE
CZ-2C R/B 3.8 05:18:10 10° S 05:22:41 54° W 05:27:08 10° NNW
ISS -1.8 05:24:20 16° S 05:24:20 16° S 05:25:27 10° S
USA 229 DEB 4.4 05:17:25 10° SSW 05:23:59 53° ESE 05:30:42 10° NE
USA 229 4.4 05:17:32 10° SSW 05:24:06 52° ESE 05:30:47 10° NE
Thor Agena Rocket 4.2 05:19:15 10° SSE 05:24:12 57° ENE 05:29:09 10° N
Cosmos 2219 Rocket 2.8 05:20:36 10° S 05:26:03 58° ESE 05:31:32 10° NNE
Cosmos 2341 Rocket 3.9 05:20:52 10° N 05:27:09 83° W 05:33:21 10° S
Meteor 1-19 Rocket 4.2 05:25:49 10° S 05:31:26 84° W 05:37:12 10° N
SL-8 R/B 4.2 05:27:37 15° WNW 05:31:27 55° NNE 05:36:08 10° E
IRS-1C Rocket 4.4 05:28:29 10° N 05:33:30 47° WNW 05:38:01 13° SW
Cosmos 1844 Rocket 2.6 05:28:14 10° NNW 05:33:48 72° WSW 05:39:19 10° SSE
Cosmos 1570 Rocket 4.1 05:31:17 15° SW 05:35:30 56° WNW 05:40:40 10° NNE
CZ-4B R/B 4.3 05:32:08 10° NNE 05:36:39 79° ESE 05:41:09 10° S
CZ-4B R/B 3.8 05:34:36 10° NNW 05:37:36 25° WNW 05:38:35 22° W
Cosmos 1898 Rocket 3.6 05:35:27 10° NNW 05:40:41 82° ENE 05:45:52 10° SSE
Cosmos 2360 Rocket 3.1 05:39:41 18° WSW 05:42:57 31° NW 05:47:57 10° N
Cosmos 2278 Rocket 2.8 05:38:28 10° NNW 05:44:07 62° ENE 05:49:43 10° SE
Okean O Rocket 2.7 05:41:04 10° N 05:44:46 26° WNW 05:47:17 16° WSW
Cosmos 468 Rocket 4.3 05:39:51 10° S 05:44:58 70° ESE 05:50:12 10° NNE
Meteor 2-4 Rocket 3.6 05:44:20 10° SSW 05:49:58 82° W 05:55:28 10° N
Cosmos 2237 Rocket 3.0 05:45:28 10° S 05:50:58 55° ESE 05:56:32 10° NNE
Cosmos 405 Rocket 3.2 05:48:51 10° S 05:52:53 68° E 05:56:54 10° NNE
Feng Yun 1-1 Rocket 4.3 05:47:48 10° NNE 05:53:43 82° WNW 05:59:28 10° SSW
Cosmos 1340 4.3 05:52:57 15° W 05:54:02 16° WNW 05:56:30 10° NNW
Okean-O 2.6 05:50:38 10° N 05:55:03 69° WNW 05:59:27 10° SSW
COSMO-SKYMED 1 2.9 05:52:45 10° SSE 05:57:04 71° ENE 06:01:24 10° N
Cosmos 1666 3.1 05:56:00 10° NNW 05:59:39 41° W 06:03:18 10° SSW
Cosmos 1743 3.8 05:58:46 10° NW 06:01:54 24° W 06:05:00 10° SW
Meteor 1-31 Rocket 3.0 05:58:35 10° N 06:02:16 47° WNW 06:05:55 10° SSW
Cosmos 2285 Rocket 4.1 05:56:19 10° SSW 06:02:45 85° WNW 06:09:15 10° NNE
Cosmos 1726 Rocket 3.8 05:58:53 10° N 06:03:21 78° E 06:07:48 10° SSE
Cosmos 858 Rocket 4.5 05:59:44 10° NNW 06:05:00 71° WSW 06:10:13 10° S
ATLAS 5 CENTAUR R/B 2.5 06:00:19 10° NW 06:06:19 88° NE 06:12:51 10° SE
ADEOS II 3.1 06:02:06 10° N 06:06:23 26° WNW 06:10:40 10° WSW
DELTA 2 R/B (1) 4.0 06:01:20 11° WSW 06:06:34 54° S 06:11:57 10° E
BREEZE M DEB (TANK) 3.1 05:56:44 10° WNW 06:06:48 78° SSW 06:10:07 10° SE
Cosmos 2333 Rocket 2.2 06:01:39 10° SSW 06:07:21 84° WNW 06:13:08 10° NNE
Cosmos 1025 Rocket 3.2 06:05:11 10° SSW 06:09:28 55° W 06:13:49 10° N
Cosmos 1892 Rocket 3.7 06:07:36 10° S 06:11:56 79° E 06:16:19 10° N
Cosmos 1937 Rocket 3.5 06:07:45 10° NNW 06:13:05 73° WSW 06:18:21 10° SSE
NOSS 0 Rocket 4.0 06:08:08 10° SSW 06:14:19 86° WNW 06:20:31 10° NNE
Cosmos 1763 Rocket 3.8 06:10:49 10° S 06:15:50 70° ESE 06:20:58 10° NNE
NOAA 6 4.0 06:10:56 10° N 06:16:03 73° WNW 06:21:08 10° SSW
Cosmos 1959 Rocket 4.4 06:10:08 10° NNW 06:16:12 68° W 06:22:16 10° S
